Location: Владивосток
(43.1151°N, 131.8856°E)
Time: 23:47:48
(UTC+10:00)

SL-16 DEB - Visible Passes

Search period start: 12 July 2024 00:00
Search period end: 22 July 2024 00:00
Orbit: 802 x 815 km, 71.0° (Epoch: 07 July)

Date Brightness Start Highest point End Pass type
(mag) Time Alt. Az. Time Alt. Az. Time Alt. Az.
12 Jul ? 21:39:10 10° SW 21:44:27 51° WNW 21:49:46 10° NNE visible
13 Jul ? 04:46:17 10° N 04:49:26 15° NE 04:52:33 10° E visible
13 Jul ? 23:01:43 10° WNW 23:03:45 12° NW 23:05:48 10° NNW visible
14 Jul ? 04:21:49 10° NNE 04:24:05 12° NE 04:26:21 10° ENE visible
14 Jul ? 22:35:26 10° WNW 22:38:24 15° NW 22:41:22 10° NNW visible
15 Jul ? 03:58:11 10° NE 03:58:42 10° NE 03:59:13 10° NE visible
15 Jul ? 22:09:27 10° W 22:13:04 18° NW 22:16:43 10° N visible
16 Jul ? 21:43:39 10° W 21:47:46 21° NW 21:51:55 10° N visible
17 Jul ? 04:48:00 10° N 04:52:58 34° NE 04:57:56 10° ESE visible
17 Jul ? 21:17:58 10° WSW 21:22:30 26° NW 21:27:03 10° N visible
18 Jul ? 04:23:03 10° N 04:27:44 28° NE 04:32:24 10° ESE visible
19 Jul ? 03:58:10 10° N 04:02:29 23° NE 04:06:46 10° ESE visible
20 Jul ? 03:33:21 10° N 03:37:11 19° NE 03:41:00 10° E visible
20 Jul ? 05:15:37 10° NNW 05:21:07 76° WSW 05:26:36 10° SSE visible
21 Jul ? 03:08:38 10° N 03:11:51 15° NE 03:15:03 10° E visible
21 Jul ? 04:50:29 10° NNW 04:56:01 85° ENE 05:01:32 10° SSE visible
21 Jul ? 21:24:15 10° WNW 21:26:10 12° NW 21:28:05 10° NNW visible
